Temperature
26 25 24 24 24 23 23 22 21 21 20 20 20 20 20 20 20 20 20 20 20 20 19 19 19 19 19 19 19 19 19 19 18 18 18 19 19 20 20 21 20 20 20
25 24 23 23 22 22 22 21 20 20 20 20 20 19 19 19 19 19 19 20 20 19 19 19 19 19 19 19 18 18 18 18 18 18 17 17 19 20 21 21 20 20 20
24 23 22 21 21 21 21 20 20 19 19 19 19 19 19 19 19 19 19 19 19 19 19 19 18 18 18 18 18 18 18 17 17 17 17 17 18 19 20 20 20 20 19
24 23 22 21 21 20 20 19 19 19 19 19 19 19 18 18 19 19 19 18 18 18 18 18 18 18 18 18 17 17 17 17 17 17 17 17 17 17 17 18 19 19 18
24 23 22 22 21 20 20 19 19 18 18 18 18 18 18 18 18 18 18 18 18 18 18 18 18 18 17 17 17 16 16 16 16 16 16 16 16 16 16 16 17 18 18
24 23 23 22 21 21 20 19 19 18 17 17 17 17 17 18 18 18 17 17 17 17 17 17 17 17 17 16 16 16 16 15 15 15 15 16 16 16 16 16 16 17 17
25 24 23 22 22 21 20 20 19 18 17 16 16 16 17 17 17 17 17 17 16 16 16 16 16 16 16 16 16 15 15 15 15 15 15 15 16 16 16 16 16 16 17
25 24 23 23 22 21 20 20 19 18 17 16 16 16 16 16 16 16 16 16 16 16 16 16 16 15 15 15 15 15 15 15 15 15 15 15 15 15 15 15 15 16 16
25 24 23 23 22 21 20 19 18 17 16 16 15 15 15 15 15 15 15 15 15 15 15 15 15 15 15 15 15 15 15 15 15 15 15 15 15 15 15 15 15 15 15
25 24 23 22 21 20 19 18 17 17 16 15 15 15 15 15 14 14 14 14 14 14 14 14 14 14 14 14 14 14 14 14 15 14 14 14 14 14 14 14 14 15 15
24 23 22 21 20 19 18 18 17 16 15 15 14 14 14 14 13 13 13 13 13 13 13 13 13 13 13 14 14 14 14 14 14 14 14 14 14 14 14 14 14 14 14
24 23 22 21 20 19 18 17 16 15 15 14 14 13 13 13 13 12 12 12 12 12 13 13 13 13 13 13 13 13 13 13 13 13 13 13 13 13 13 13 13 14 14
23 22 21 20 19 18 17 16 16 15 14 14 13 13 13 12 12 12 12 12 12 12 12 12 12 12 12 13 13 13 13 13 13 13 13 13 13 13 13 13 13 13 13
23 22 21 20 19 18 17 16 15 15 14 13 13 12 12 12 11 11 11 11 11 11 11 11 11 12 12 12 12 12 12 12 12 12 12 13 13 13 12 12 13 13 13
23 22 21 20 19 17 16 16 15 14 14 13 13 12 12 12 12 11 11 11 11 11 11 11 11 11 11 12 12 12 12 12 12 12 12 12 12 12 12 12 12 13 13
22 22 21 20 19 17 16 16 15 14 14 13 13 13 12 12 12 11 11 11 11 11 11 11 11 11 11 11 11 11 11 12 12 12 12 12 12 12 12 12 12 12 12
21 21 20 20 19 17 16 16 15 14 14 13 13 13 12 12 12 12 11 11 11 11 11 11 11 11 12 11 11 11 11 11 11 11 11 11 11 11 11 11 11 12 12
20 20 19 19 19 18 16 16 15 14 14 13 13 13 12 12 12 12 11 11 11 11 11 11 12 12 12 11 11 11 11 11 11 11 11 11 11 11 11 11 11 11 11
18 19 19 19 18 18 17 16 15 14 14 14 13 13 13 12 12 12 12 11 11 11 11 11 12 12 11 11 11 11 11 11 11 11 11 11 11 11 11 11 11 11 11
17 17 17 18 18 17 17 16 15 14 14 14 14 13 13 12 12 12 12 11 11 11 11 11 12 12 11 11 11 11 11 11 11 11 11 11 11 11 10 10 11 11 11
15 15 16 16 17 17 16 15 15 14 14 14 14 13 13 12 12 12 12 11 11 11 11 11 11 11 11 11 11 11 11 11 11 11 10 10 10 10 10 10 10 10 11
13 14 14 14 15 16 16 15 15 14 14 14 13 13 13 12 12 12 12 11 11 11 11 11 11 11 11 11 11 11 11 11 11 10 10 10 10 10 10 10 10 10 10
12 12 12 12 14 14 15 15 14 14 13 13 13 13 13 12 12 12 12 11 11 11 11 11 10 10 11 11 11 11 11 10 10 10 10 10 10 10 10 10 10 10 10
11 11 11 11 12 13 13 14 14 14 13 13 13 12 12 12 12 12 12 11 11 11 11 11 11 11 11 11 11 11 10 10 10 10 10 10 10 10 10 10 10 9 9
10 10 10 10 11 11 12 13 13 13 13 13 12 12 12 12 12 12 12 11 11 11 11 11 11 11 10 11 11 10 10 10 10 10 10 10 10 10 10 10 10 9 9
9 9 10 10 10 10 11 11 12 13 12 12 12 12 12 12 12 11 11 11 11 12 12 12 11 11 11 11 10 10 10 10 10 10 10 10 10 11 10 10 10 9 9
Wind_Speed
7 7 4 5 4 2 2 4 5 5 4 5 7 8 8 7 6 6 7 6 6 6 6 6 5 6 6 6 5 4 5 4 3 4 8 10 11 13 12 11 9 8 7
7 7 6 7 8 8 6 3 2 4 6 6 6 7 7 7 7 7 6 6 6 5 7 7 6 6 5 6 6 6 4 4 4 3 4 7 8 9 8 4 6 6 5
6 7 6 7 7 7 7 7 6 5 5 6 6 7 6 6 8 8 6 5 5 5 5 6 7 6 7 7 7 6 7 5 4 5 4 4 5 5 6 5 3 3 3
5 5 4 4 4 4 4 4 4 5 5 6 5 7 7 9 10 8 8 6 6 7 6 7 7 7 7 7 7 7 6 5 5 4 5 8 6 4 5 5 5 5 4
3 2 1 1 3 4 4 3 2 4 5 6 6 7 7 7 7 7 8 8 8 8 9 8 7 7 7 7 7 5 6 5 4 4 4 6 6 7 5 6 5 5 4
2 2 1 2 3 4 5 4 3 4 4 6 6 7 8 9 9 9 8 7 7 7 9 9 7 7 7 7 6 6 5 4 4 5 5 5 4 3 4 5 5 5 4
2 2 2 3 4 5 5 4 4 4 4 5 6 7 7 9 9 9 8 8 7 7 8 9 8 8 7 6 6 6 5 5 5 6 5 5 5 4 3 4 4 4 3
4 4 4 4 4 6 5 5 5 5 5 5 6 6 8 8 8 8 8 7 6 7 7 8 8 7 7 7 6 5 5 5 5 6 5 4 4 2 2 2 3 4 3
5 6 7 6 6 6 7 7 6 6 5 6 7 7 8 8 8 8 7 6 5 5 5 6 7 7 7 6 5 4 4 3 3 4 4 3 2 2 2 2 2 3 3
8 7 5 5 5 5 6 6 6 5 5 6 6 7 8 7 6 5 5 4 4 3 3 4 4 4 4 4 4 3 3 3 2 2 1 0 1 2 2 2 2 2 2
10 7 6 5 5 6 6 6 5 5 4 5 5 6 7 6 5 4 4 4 5 4 3 2 1 1 2 3 2 2 2 2 2 1 2 4 4 4 4 3 3 2 2
10 7 7 6 6 6 6 6 5 4 3 3 4 4 5 5 5 5 6 6 6 6 6 5 4 2 1 1 1 1 3 5 5 5 6 5 5 5 5 4 4 3 3
8 6 5 4 5 5 5 5 4 3 3 1 2 2 3 4 5 6 6 7 7 7 6 6 5 4 3 3 5 5 7 8 8 7 7 8 7 7 5 5 6 5 5
7 5 3 3 3 4 5 6 4 3 2 1 1 1 2 3 4 5 5 6 6 6 6 5 5 5 4 5 7 7 8 8 9 9 8 8 8 7 7 7 8 7 5
9 6 4 2 2 4 4 5 5 4 3 3 2 3 3 3 4 4 4 4 4 4 4 4 4 4 4 5 6 7 9 8 8 8 8 8 9 10 8 8 7 8 8
11 8 6 4 3 5 5 6 5 5 4 4 4 4 6 6 5 3 2 1 1 1 1 1 2 4 6 9 11 8 7 7 7 6 6 8 8 7 8 10 11 10 9
12 10 8 5 4 5 5 5 5 5 6 5 5 5 8 8 7 5 4 2 1 1 1 3 6 7 8 12 12 10 7 8 7 8 7 9 10 10 6 4 5 8 11
14 12 9 7 5 5 6 6 7 6 6 6 6 6 8 9 9 7 5 4 3 3 2 4 7 6 7 11 12 10 7 7 7 8 8 9 9 10 9 5 6 6 6
15 12 10 10 6 6 7 7 8 7 8 8 7 7 9 10 10 9 7 5 4 4 4 5 7 7 5 8 10 10 4 6 8 9 9 9 8 12 12 7 6 5 4
17 15 13 11 7 7 7 8 9 9 8 8 7 8 9 10 11 11 9 6 5 5 5 6 7 7 6 5 8 9 2 3 6 7 8 11 9 10 11 7 7 6 6
20 18 15 12 8 7 8 10 10 9 8 7 7 7 9 10 11 10 9 8 7 7 6 7 7 7 7 5 7 9 4 2 2 6 6 5 7 9 9 7 5 5 7
22 21 17 14 12 9 9 11 11 9 7 7 7 8 10 11 12 11 11 10 9 8 7 7 7 6 6 6 6 7 7 6 5 6 6 5 5 6 6 5 7 11 10
21 20 19 18 15 12 11 14 11 9 8 8 8 8 10 10 10 13 13 11 10 10 9 9 9 8 7 5 6 5 6 8 6 6 6 6 4 1 1 2 6 7 6
19 19 19 19 17 16 15 13 11 10 10 9 8 8 9 10 10 10 11 11 12 11 10 10 9 8 8 7 6 5 4 4 4 5 5 4 3 2 3 3 2 2 4
18 18 18 18 18 17 18 15 12 11 11 10 9 10 11 10 10 11 8 10 9 9 9 8 9 9 8 8 8 6 4 4 4 5 4 4 5 5 4 3 3 4 4
17 18 19 19 18 17 16 16 12 12 12 11 11 11 11 10 10 10 7 7 5 8 11 10 10 8 12 17 15 13 10 9 7 3 5 5 4 3 3 3 4 5 5
Wind_Direction
54 47 23 15 30 72 162 200 218 234 242 235 231 232 238 245 249 238 230 222 218 205 194 223 217 220 229 230 230 234 239 241 246 265 279 274 267 261 248 238 237 246 255
67 55 25 18 19 24 12 356 342 291 271 258 256 257 259 259 252 250 237 217 209 207 215 218 231 233 236 234 231 229 232 232 231 240 275 281 279 273 267 223 215 233 244
78 69 48 30 19 11 3 5 9 349 322 297 279 274 272 264 263 260 251 236 230 222 230 233 239 238 237 235 227 224 228 231 239 236 235 264 274 329 315 301 267 252 254
84 67 53 32 2 352 350 356 356 352 341 328 307 286 270 264 262 262 258 248 239 238 235 236 233 234 235 236 233 224 221 222 238 254 258 255 270 282 302 316 338 346 334
105 85 345 329 318 310 309 310 344 342 335 326 311 300 290 281 279 273 262 248 237 229 232 231 229 230 232 232 233 230 223 221 237 257 281 279 267 241 250 283 304 319 315
176 183 287 305 293 293 292 301 317 312 311 309 307 301 298 296 292 283 270 256 243 230 227 227 222 225 226 225 227 228 227 224 241 255 263 275 274 270 246 264 293 296 292
280 284 303 300 289 285 289 293 291 290 298 303 304 307 304 296 285 281 273 264 256 239 224 219 216 220 218 218 218 220 226 226 237 248 256 265 265 267 254 255 282 291 288
283 296 294 285 293 310 320 315 315 309 309 310 311 309 301 294 288 284 278 270 262 256 242 224 218 218 217 218 210 215 226 231 236 252 259 267 274 272 263 275 308 313 317
306 311 314 331 333 334 334 327 322 321 320 323 322 308 307 303 298 296 291 285 275 264 245 227 217 216 218 215 206 214 230 246 246 255 256 262 282 287 312 325 334 329 331
311 316 339 344 342 338 325 318 319 319 329 330 328 325 333 327 322 316 315 313 309 303 275 237 223 207 202 201 206 226 230 213 214 225 227 311 11 7 340 339 338 344 336
320 330 338 346 345 337 327 327 325 324 334 337 347 346 341 345 360 10 13 21 25 26 24 360 339 213 194 203 212 241 206 160 135 105 93 74 60 34 7 6 5 358 349
327 329 336 344 340 331 325 324 319 323 342 354 359 3 4 15 25 37 42 41 38 32 30 21 16 7 346 29 55 53 107 110 101 85 74 65 62 46 29 3 5 354 345
324 323 318 318 317 316 320 315 312 318 326 349 3 18 34 41 43 47 46 44 35 26 22 19 11 12 28 60 77 88 91 85 76 69 65 59 52 38 17 20 15 11 18
310 303 291 283 294 303 297 292 292 288 277 221 226 109 75 72 69 59 47 42 34 20 13 21 25 37 52 74 86 88 84 81 77 71 65 57 52 33 11 36 21 18 18
306 302 306 294 268 275 271 262 261 248 251 249 228 174 154 129 107 82 58 40 33 26 6 15 32 68 76 78 96 103 96 90 91 90 86 78 74 60 50 53 32 27 31
314 319 323 304 263 254 262 257 241 230 230 240 236 184 172 162 150 138 117 69 13 17 6 14 71 78 76 62 68 89 94 90 85 89 104 105 78 76 71 71 60 52 49
342 338 325 301 259 239 242 250 245 228 225 231 233 195 183 177 174 175 174 186 186 172 194 118 93 85 65 60 58 55 89 79 70 62 54 68 56 41 34 66 83 65 59
333 326 314 298 265 233 221 228 239 235 226 227 228 205 190 186 180 185 184 182 171 166 160 118 106 100 74 54 49 40 86 82 75 68 67 70 49 27 16 36 58 63 52
319 305 296 285 258 231 221 225 231 237 235 228 218 205 192 187 182 184 183 180 176 176 161 130 122 110 86 52 39 25 83 91 80 69 54 65 56 26 21 33 41 43 27
325 319 310 297 267 228 213 221 231 233 236 234 216 199 187 185 185 183 181 178 178 180 168 147 141 136 123 72 45 22 19 115 116 107 86 66 60 40 31 28 30 22 353
327 325 318 308 285 242 213 217 229 232 233 227 206 191 185 185 184 180 179 178 184 184 174 156 153 145 133 108 63 37 28 4 133 129 109 81 61 51 34 28 34 356 321
329 330 329 322 304 264 226 218 222 225 227 220 203 190 185 190 186 180 183 186 185 179 171 163 160 147 140 125 102 75 55 23 50 85 102 110 88 59 31 21 2 351 348
328 329 327 324 320 300 249 227 218 213 220 214 202 190 189 194 177 177 182 184 184 183 177 175 174 166 151 128 128 112 73 56 70 89 114 137 140 85 289 314 343 359 16
322 325 325 324 323 321 297 245 217 206 213 211 201 189 190 186 176 178 181 183 185 188 183 182 179 168 160 161 165 164 146 122 134 145 145 170 193 256 284 269 285 82 52
314 317 319 320 322 324 320 286 233 208 210 207 200 193 191 188 180 181 183 193 190 191 184 183 175 168 171 160 158 176 164 169 146 152 170 197 204 214 209 159 101 73 50
311 313 313 316 318 320 318 310 268 223 210 207 201 196 192 187 182 174 152 59 107 137 152 158 158 155 146 139 127 116 112 108 119 164 216 208 203 169 119 95 103 97 69
Height
1493 1495 1497 1497 1499 1501 1501 1502 1503 1503 1504 1504 1504 1504 1505 1506 1507 1507 1508 1508 1508 1508 1508 1509 1509 1509 1510 1509 1510 1510 1509 1509 1511 1511 1511 1510 1509 1508 1506 1506 1506 1506 1506
1495 1497 1498 1498 1499 1499 1499 1500 1500 1500 1500 1500 1500 1500 1501 1502 1502 1502 1502 1502 1502 1503 1504 1504 1504 1504 1504 1503 1504 1504 1503 1503 1505 1505 1506 1506 1504 1502 1502 1501 1501 1501 1501
1496 1499 1500 1500 1500 1500 1499 1498 1497 1497 1496 1496 1496 1495 1496 1495 1496 1496 1496 1495 1496 1496 1497 1497 1497 1497 1497 1497 1497 1497 1498 1497 1498 1500 1501 1502 1500 1498 1497 1498 1498 1497 1497
1497 1500 1501 1502 1501 1500 1499 1497 1496 1495 1494 1493 1492 1491 1490 1489 1489 1490 1490 1489 1489 1490 1489 1490 1490 1490 1490 1490 1490 1491 1491 1492 1492 1493 1495 1497 1498 1497 1495 1495 1494 1493 1492
1498 1500 1501 1501 1501 1500 1498 1496 1494 1493 1491 1490 1489 1488 1486 1485 1484 1483 1483 1482 1483 1483 1483 1484 1484 1483 1483 1483 1484 1484 1485 1486 1487 1488 1490 1491 1492 1492 1492 1490 1490 1489 1487
1496 1498 1499 1499 1499 1498 1497 1495 1493 1491 1489 1487 1486 1485 1483 1481 1479 1478 1477 1476 1476 1476 1476 1476 1476 1477 1477 1477 1478 1479 1480 1481 1482 1484 1485 1488 1488 1487 1488 1487 1485 1484 1483
1494 1495 1496 1496 1496 1495 1494 1492 1490 1488 1486 1485 1483 1481 1479 1477 1475 1473 1471 1470 1470 1470 1470 1470 1470 1471 1471 1472 1473 1474 1476 1477 1478 1480 1481 1483 1483 1484 1484 1484 1483 1482 1481
1491 1492 1493 1493 1492 1492 1491 1489 1487 1485 1483 1481 1479 1477 1475 1472 1470 1468 1466 1465 1464 1464 1465 1464 1465 1465 1467 1468 1469 1470 1472 1473 1474 1476 1478 1479 1480 1481 1482 1482 1481 1481 1480
1487 1488 1489 1489 1489 1489 1488 1486 1484 1482 1480 1477 1475 1473 1470 1467 1465 1463 1461 1459 1459 1458 1459 1459 1460 1461 1463 1464 1465 1467 1468 1470 1472 1473 1474 1476 1477 1479 1479 1479 1480 1481 1480
1484 1485 1486 1486 1486 1485 1484 1483 1481 1478 1476 1474 1471 1469 1465 1462 1459 1457 1456 1454 1454 1454 1454 1455 1455 1456 1458 1460 1462 1464 1466 1468 1470 1471 1472 1474 1476 1477 1477 1478 1478 1478 1479
1481 1482 1483 1483 1483 1482 1481 1479 1478 1475 1473 1470 1467 1464 1461 1458 1455 1453 1452 1451 1450 1450 1451 1451 1452 1453 1456 1458 1460 1462 1464 1466 1468 1470 1471 1473 1474 1475 1476 1476 1477 1477 1477
1479 1479 1480 1480 1480 1480 1478 1477 1475 1473 1470 1468 1465 1462 1458 1456 1453 1451 1450 1449 1449 1449 1449 1450 1451 1453 1455 1456 1458 1461 1463 1465 1467 1469 1471 1472 1473 1474 1474 1475 1475 1475 1475
1477 1477 1477 1477 1477 1477 1475 1474 1472 1471 1469 1466 1464 1461 1458 1455 1453 1451 1450 1449 1449 1449 1450 1451 1452 1453 1455 1456 1458 1461 1463 1465 1467 1469 1470 1471 1472 1473 1474 1474 1474 1474 1474
1474 1474 1474 1474 1474 1473 1472 1471 1470 1468 1467 1465 1463 1460 1458 1456 1454 1452 1451 1451 1451 1451 1452 1452 1453 1454 1456 1457 1460 1463 1464 1466 1468 1469 1471 1472 1473 1474 1474 1474 1474 1474 1474
1471 1470 1470 1470 1470 1470 1469 1468 1467 1466 1465 1464 1462 1459 1458 1456 1455 1454 1453 1453 1453 1454 1454 1455 1456 1457 1459 1461 1463 1465 1466 1468 1470 1471 1472 1473 1474 1475 1475 1475 1475 1475 1474
1468 1468 1467 1467 1467 1466 1466 1465 1464 1463 1462 1461 1460 1458 1457 1456 1456 1456 1456 1456 1456 1457 1458 1458 1459 1461 1462 1464 1466 1468 1469 1471 1472 1474 1475 1475 1476 1477 1477 1477 1477 1477 1477
1468 1467 1466 1465 1464 1463 1462 1461 1460 1460 1459 1458 1458 1457 1456 1455 1456 1457 1457 1458 1459 1460 1461 1462 1463 1464 1466 1468 1470 1471 1472 1473 1474 1475 1476 1477 1478 1478 1479 1479 1479 1479 1479
1469 1466 1464 1462 1460 1458 1457 1457 1456 1456 1455 1455 1455 1454 1454 1454 1455 1456 1458 1459 1460 1462 1463 1464 1466 1467 1469 1471 1473 1474 1475 1476 1477 1478 1478 1478 1479 1480 1480 1481 1481 1481 1481
1468 1464 1460 1457 1455 1453 1453 1452 1452 1452 1451 1451 1451 1451 1451 1451 1453 1455 1457 1459 1461 1463 1464 1466 1468 1469 1471 1473 1475 1476 1477 1478 1479 1479 1480 1480 1481 1481 1482 1482 1482 1482 1481
1464 1460 1455 1452 1449 1448 1447 1447 1447 1447 1447 1447 1447 1447 1447 1448 1450 1452 1455 1458 1460 1463 1465 1466 1469 1471 1472 1474 1476 1477 1478 1479 1480 1480 1481 1482 1482 1482 1483 1483 1482 1482 1482
1460 1455 1450 1446 1443 1442 1441 1440 1440 1441 1441 1442 1443 1443 1444 1445 1447 1450 1453 1456 1459 1462 1464 1466 1469 1471 1473 1475 1476 1478 1479 1480 1481 1481 1482 1482 1483 1483 1483 1483 1483 1483 1482
1456 1451 1445 1440 1437 1435 1433 1432 1433 1434 1436 1437 1438 1439 1440 1442 1444 1447 1450 1453 1456 1460 1463 1465 1468 1470 1472 1474 1476 1478 1479 1481 1481 1482 1482 1483 1483 1483 1484 1484 1484 1483 1482
1453 1448 1442 1436 1431 1428 1427 1424 1425 1428 1430 1431 1432 1434 1436 1438 1440 1443 1446 1450 1453 1457 1460 1463 1466 1468 1470 1473 1475 1477 1479 1480 1481 1482 1482 1483 1483 1484 1484 1484 1484 1484 1483
1450 1444 1439 1432 1426 1422 1419 1417 1418 1421 1423 1425 1427 1429 1431 1434 1436 1439 1443 1446 1449 1453 1457 1460 1463 1466 1468 1471 1473 1475 1477 1479 1480 1481 1482 1483 1483 1484 1484 1485 1485 1485 1484
1445 1440 1435 1429 1423 1417 1412 1410 1411 1413 1416 1418 1421 1423 1426 1429 1432 1436 1439 1443 1447 1450 1453 1457 1460 1463 1466 1469 1471 1474 1476 1477 1479 1481 1482 1483 1483 1484 1485 1486 1486 1485 1485
1440 1435 1430 1425 1419 1413 1408 1404 1404 1406 1408 1411 1414 1417 1420 1424 1428 1432 1436 1440 1444 1447 1451 1454 1458 1461 1464 1467 1469 1472 1474 1476 1478 1480 1481 1482 1483 1485 1486 1486 1486 1485 1484